Greenland, New Hampshire, United States (03840)
Lat: 43.04N, Lon: 70.83W
Wx Zone: NHZ014
Local Info
Past Weather Observations for Saturday, November 15, 2014

NOTE: This archive is for the closest National Weather Service station to Greenland. Information may differ from the station used for current weather conditions.

Click here for Long-term Archive

Time Weather Temperature Dewpoint Humidity Pressure Winds Precip Visibility
23:58
Clear
28°F / -2°C 16°F / -9°C 59% 30.3 in
(1026 mb)
SSW 4.6 mph
(SSW 7 kph)
- 10SM
22:58
Clear
28°F / -2°C 14°F / -10°C 55% 30.3 in
(1026 mb)
SSW 4.6 mph
(SSW 7 kph)
- 10SM
21:58
Clear
30°F / -1°C 14°F / -10°C 51% 30.3 in
(1026 mb)
SSW 4.6 mph
(SSW 7 kph)
- 10SM
20:58
Clear
28°F / -2°C 14°F / -10°C 55% 30.3 in
(1026 mb)
SSW 5.8 mph
(SSW 9 kph)
- 10SM
19:58
Clear
30°F / -1°C 14°F / -10°C 51% 30.27 in
(1025 mb)
SW 4.6 mph
(SW 7 kph)
- 10SM
18:58
Clear
30°F / -1°C 16°F / -9°C 55% 30.27 in
(1025 mb)
SSW 5.8 mph
(SSW 9 kph)
- 10SM
17:58
Clear
32°F / 0°C 12°F / -11°C 44% 30.24 in
(1024 mb)
WNW 4.6 mph
(WNW 7 kph)
- 10SM
16:58
Clear
34°F / 1°C 10°F / -12°C 38% 30.24 in
(1024 mb)
W 3.5 mph
(W 6 kph)
- 10SM
15:58
Clear
37°F / 3°C 10°F / -12°C 33% 30.21 in
(1023 mb)
WNW 5.8 mph
(WNW 9 kph)
- 10SM
14:58
Clear
37°F / 3°C 12°F / -11°C 35% 30.18 in
(1022 mb)
NW 11.5 mph
(NW 19 kph)
- 10SM
13:58
Clear
37°F / 3°C 12°F / -11°C 35% 30.18 in
(1022 mb)
NW 9.2 mph
(NW 15 kph)
- 10SM
12:58
Partly Cloudy
37°F / 3°C 14°F / -10°C 38% 30.18 in
(1022 mb)
WNW 12.7 mph
(WNW 20 kph)
- 10SM
11:58
Partly Cloudy
37°F / 3°C 14°F / -10°C 38% 30.21 in
(1023 mb)
NW 11.5 mph
(NW 19 kph)
- 10SM
10:58
Partly Cloudy
36°F / 2°C 14°F / -10°C 41% 30.21 in
(1023 mb)
NW 15 mph
(NW 24 kph)
- 10SM
09:58
Partly Cloudy
34°F / 1°C 14°F / -10°C 44% 30.21 in
(1023 mb)
NW 18.4 mph
(NW 30 kph)
- 10SM
08:58
Partly Cloudy
32°F / 0°C 16°F / -9°C 51% 30.21 in
(1023 mb)
WNW 11.5 mph
(WNW 19 kph)
- 10SM
07:58
Partly Cloudy
30°F / -1°C 16°F / -9°C 55% 30.21 in
(1023 mb)
WNW 8.1 mph
(WNW 13 kph)
- 10SM
06:58
Partly Cloudy
27°F / -3°C 18°F / -8°C 69% 30.18 in
(1022 mb)
W 8.1 mph
(W 13 kph)
- 10SM
05:58
Partly Cloudy
27°F / -3°C 18°F / -8°C 69% 30.15 in
(1021 mb)
W 10.4 mph
(W 17 kph)
- 10SM
04:58
Partly Cloudy
28°F / -2°C 18°F / -8°C 64% 30.15 in
(1021 mb)
W 9.2 mph
(W 15 kph)
- 10SM
03:58
Partly Cloudy
27°F / -3°C 18°F / -8°C 69% 30.12 in
(1020 mb)
W 10.4 mph
(W 17 kph)
- 10SM
02:58
Partly Cloudy
27°F / -3°C 19°F / -7°C 74% 30.12 in
(1020 mb)
W 5.8 mph
(W 9 kph)
- 10SM
01:58
Partly Cloudy
28°F / -2°C 19°F / -7°C 69% 30.09 in
(1019 mb)
W 9.2 mph
(W 15 kph)
- 10SM
00:58
Partly Cloudy
28°F / -2°C 18°F / -8°C 64% 30.09 in
(1019 mb)
WNW 5.8 mph
(WNW 9 kph)
- 10SM
Time Weather Temperature Dewpoint Humidity Pressure Winds Precip Visibility


Weather for websites

WeatherForYou.com, LLC is not responsible for any damages or problems caused by this service. Current weather conditions are obtained from the closest station including government and personal stations which may have varying degrees of accuracy. Weather forecasts are derived from the NOAA NDFD. Like all things, this site belongs to Jesus Christ... He just trusts me to maintain it. If you have any questions or comments email webmaster@weatherforyou.com

Copyright © 2014, WeatherForYou.com LLC. All rights reserved.